Simultaneous Nadir Overpasses (SNOs) Predictions

Prediction of SNOs between METOP-A and NOAA-19 Satellite Orbit:

Table of predicted SNOs for the next 14.0 days since TLE Epoch: 4/5/2014
Index Date (METOP-A) Time (METOP-A) Lat,Lon (METOP-A) SZA (METOP-A ) Date (NOAA-19) Time (NOAA-19) Lat,Lon (NOAA-19) SZA (NOAA-19 ) Distance(km) Time Diff (sec)
1 04/07/2014 18:58:03 -74.39, 70.63 112.64 04/07/2014 18:56:53 -74.42, 68.73 112.54 56.78 70
2 04/07/2014 19:48:50 74.02,-122.96 67.01 04/07/2014 19:47:43 74.03,-122.99 67.03 1.78 67
3 04/07/2014 20:39:32 -74.03, 44.38 113.00 04/07/2014 20:38:48 -74.00, 44.32 113.02 3.32 44
4 04/07/2014 21:30:12 74.00,-148.34 66.97 04/07/2014 21:29:46 74.00,-148.41 66.97 2.17 26
5 04/07/2014 22:20:55 -73.96, 18.87 113.09 04/07/2014 22:20:51 -73.96, 18.90 113.09 1.12 4
6 04/07/2014 23:11:35 73.94,-173.85 66.88 04/07/2014 23:11:49 73.96,-173.83 66.90 2.68 14
7 04/08/2014 00:02:17 -73.94, -6.51 113.14 04/08/2014 00:02:54 -73.92, -6.52 113.16 1.72 37
8 04/08/2014 00:52:57 73.92, 160.77 66.83 04/08/2014 00:53:52 73.92, 160.75 66.83 0.62 55
9 04/08/2014 01:43:42 -73.77, -32.25 113.32 04/08/2014 01:44:55 -73.79, -31.70 113.33 17.45 73
10 04/18/2014 00:45:57 74.16, 163.08 63.41 04/18/2014 00:44:44 74.17, 162.51 63.45 17.33 73
11 04/18/2014 01:36:42 -74.01, -29.95 116.74 04/18/2014 01:35:45 -74.02, -29.87 116.72 2.65 57
12 04/18/2014 02:27:21 74.04, 137.45 63.28 04/18/2014 02:26:45 74.04, 137.34 63.29 3.23 36
13 04/18/2014 03:18:04 -73.99, -55.33 116.78 04/18/2014 03:17:48 -73.99, -55.29 116.79 1.52 16
14 04/18/2014 04:08:44 73.97, 111.94 63.19 04/18/2014 04:08:47 73.95, 112.04 63.17 3.61 3
15 04/18/2014 04:59:26 -73.98, -80.72 116.82 04/18/2014 04:59:51 -73.95, -80.71 116.85 2.65 25
16 04/18/2014 05:50:06 73.95, 86.55 63.14 04/18/2014 05:50:51 73.97, 86.50 63.16 2.43 45
17 04/18/2014 06:40:49 -73.91,-106.23 116.91 04/18/2014 06:41:54 -73.92,-106.14 116.91 2.92 65
18 04/18/2014 07:31:37 73.48, 60.11 62.69 04/18/2014 07:32:46 73.54, 62.03 62.68 60.96 69




NCC Satellite Simultaneous Nadir Overpasses (SNOs) Prediction Service
